| time (UTC) | temp C | wind direction | speed KPH | gust KPH | rain 1hr cm | rain 24hr cm | rain mn cm | humidity % | barometer mb |
| 20260507093059 | 7 | 0 | 0.0 | 14.5 | 0.00 | 0.00 | 0.00 | 72 | 1012.7 |
| 20260507091601 | 7 | 200 | 0.0 | 12.9 | 0.00 | 0.00 | 0.00 | 71 | 1012.8 |
| 20260507084557 | 7 | 198 | 1.6 | 16.1 | 0.00 | 0.00 | 0.00 | 68 | 1013.3 |
| 20260507083058 | 7 | 207 | 0.0 | 14.5 | 0.00 | 0.00 | 0.00 | 66 | 1013.4 |
| 20260507081556 | 7 | 234 | 0.0 | 4.8 | 0.00 | 0.00 | 0.00 | 64 | 1013.5 |
| 20260507080116 | 7 | 211 | 0.0 | 9.7 | 0.00 | 0.00 | 0.00 | 62 | 1013.9 |
| 20260507074557 | 7 | 0 | 0.0 | 9.7 | 0.00 | 0.00 | 0.00 | 59 | 1014.1 |
| 20260507073054 | 7 | 224 | 0.0 | 11.3 | 0.00 | 0.00 | 0.00 | 58 | 1014.1 |
| 20260507071555 | 8 | 0 | 0.0 | 6.4 | 0.00 | 0.00 | 0.00 | 55 | 1014.4 |
| 20260507070104 | 8 | 0 | 1.6 | 4.8 | 0.00 | 0.00 | 0.00 | 52 | 1014.5 |
| 20260507064629 | 8 | 0 | 1.6 | 6.4 | 0.00 | 0.00 | 0.00 | 51 | 1014.9 |
| 20260507063112 | 8 | 0 | 0.0 | 6.4 | 0.00 | 0.00 | 0.00 | 50 | 1015.0 |
| 20260507061556 | 8 | 216 | 1.6 | 6.4 | 0.00 | 0.00 | 0.00 | 50 | 1015.1 |
| 20260507060113 | 8 | 0 | 0.0 | 6.4 | 0.00 | 0.00 | 0.00 | 50 | 1015.3 |
| 20260507054606 | 8 | 0 | 0.0 | 12.9 | 0.00 | 0.00 | 0.00 | 48 | 1015.3 |
| 20260507053107 | 9 | 0 | 0.0 | 4.8 | 0.00 | 0.00 | 0.00 | 45 | 1015.5 |
| 20260507051606 | 10 | 178 | 0.0 | 9.7 | 0.00 | 0.00 | 0.00 | 43 | 1015.4 |
| 20260507050055 | 10 | 178 | 1.6 | 3.2 | 0.00 | 0.00 | 0.00 | 39 | 1015.4 |
| 20260507044559 | 10 | 0 | 0.0 | 3.2 | 0.00 | 0.00 | 0.00 | 39 | 1015.4 |
| 20260507043059 | 10 | 0 | 0.0 | 9.7 | 0.00 | 0.00 | 0.00 | 39 | 1015.7 |
| 20260507041556 | 11 | 182 | 1.6 | 6.4 | 0.00 | 0.00 | 0.00 | 35 | 1015.7 |
| 20260507040055 | 11 | 177 | 1.6 | 4.8 | 0.00 | 0.00 | 0.00 | 33 | 1015.9 |
| 20260507034555 | 11 | 0 | 0.0 | 3.2 | 0.00 | 0.00 | 0.00 | 32 | 1016.0 |
| 20260507033057 | 11 | 264 | 0.0 | 0.0 | 0.00 | 0.00 | 0.00 | 32 | 1016.1 |
| 20260507031555 | 11 | 0 | 0.0 | 0.0 | 0.00 | 0.00 | 0.00 | 32 | 1016.1 |
| 20260507030057 | 11 | 0 | 0.0 | 4.8 | 0.00 | 0.00 | 0.00 | 32 | 1016.2 |
| 20260507024555 | 11 | 0 | 0.0 | 0.0 | 0.00 | 0.00 | 0.00 | 33 | 1016.1 |
| 20260507023058 | 11 | 0 | 0.0 | 0.0 | 0.00 | 0.00 | 0.00 | 36 | 1016.1 |
| 20260507021553 | 12 | 0 | 0.0 | 0.0 | 0.00 | 0.00 | 0.00 | 31 | 1015.9 |
| 20260507020118 | 12 | 0 | 0.0 | 0.0 | 0.00 | 0.00 | 0.00 | 31 | 1015.8 |
| 20260507014601 | 12 | 0 | 0.0 | 0.0 | 0.00 | 0.00 | 0.00 | 31 | 1015.8 |
| 20260507013057 | 13 | 0 | 0.0 | 0.0 | 0.00 | 0.00 | 0.00 | 30 | 1015.7 |
| 20260507011557 | 13 | 0 | 0.0 | 3.2 | 0.00 | 0.00 | 0.00 | 30 | 1015.8 |
| 20260507010110 | 13 | 0 | 0.0 | 4.8 | 0.00 | 0.00 | 0.00 | 29 | 1015.8 |
| 20260507004605 | 14 | 336 | 1.6 | 14.5 | 0.00 | 0.00 | 0.00 | 28 | 1015.7 |
| 20260507003101 | 14 | 280 | 6.4 | 16.1 | 0.00 | 0.00 | 0.00 | 27 | 1015.8 |
| 20260507001605 | 14 | 323 | 1.6 | 8.0 | 0.00 | 0.00 | 0.00 | 28 | 1016.1 |
| 20260507000059 | 15 | 329 | 0.0 | 4.8 | 0.00 | 0.00 | 0.00 | 27 | 1016.2 |
| 20260506234600 | 15 | 341 | 1.6 | 19.3 | 0.00 | 0.00 | 0.00 | 26 | 1016.2 |
| 20260506233055 | 15 | 312 | 3.2 | 24.1 | 0.00 | 0.00 | 0.00 | 27 | 1016.3 |
| 20260506231608 | 15 | 336 | 0.0 | 11.3 | 0.00 | 0.00 | 0.00 | 29 | 1016.3 |
| 20260506230114 | 15 | 230 | 1.6 | 19.3 | 0.00 | 0.00 | 0.00 | 26 | 1016.5 |
| 20260506224556 | 15 | 299 | 3.2 | 14.5 | 0.00 | 0.00 | 0.00 | 27 | 1016.4 |
| 20260506223055 | 14 | 0 | 1.6 | 17.7 | 0.00 | 0.00 | 0.00 | 28 | 1016.7 |
| 20260506221619 | 15 | 309 | 1.6 | 16.1 | 0.00 | 0.00 | 0.00 | 28 | 1016.8 |
| 20260506220122 | 15 | 346 | 1.6 | 16.1 | 0.00 | 0.00 | 0.00 | 29 | 1016.9 |
| 20260506214557 | 15 | 0 | 3.2 | 25.7 | 0.00 | 0.00 | 0.00 | 27 | 1017.1 |
| 20260506213109 | 15 | 322 | 1.6 | 19.3 | 0.00 | 0.00 | 0.00 | 29 | 1017.2 |
| 20260506211558 | 15 | 297 | 3.2 | 27.4 | 0.00 | 0.00 | 0.00 | 28 | 1017.4 |
| 20260506210104 | 15 | 288 | 6.4 | 33.8 | 0.00 | 0.00 | 0.00 | 27 | 1017.5 |
| 20260506204607 | 15 | 322 | 4.8 | 22.5 | 0.00 | 0.00 | 0.00 | 27 | 1017.6 |
| 20260506203058 | 13 | 282 | 1.6 | 22.5 | 0.00 | 0.00 | 0.00 | 31 | 1018.0 |
| 20260506201558 | 14 | 334 | 4.8 | 19.3 | 0.00 | 0.00 | 0.00 | 30 | 1017.9 |
| 20260506200054 | 13 | 286 | 3.2 | 19.3 | 0.00 | 0.00 | 0.00 | 32 | 1018.2 |
| 20260506194556 | 13 | 352 | 3.2 | 24.1 | 0.00 | 0.00 | 0.00 | 31 | 1018.2 |
| 20260506193054 | 13 | 313 | 3.2 | 25.7 | 0.00 | 0.00 | 0.00 | 29 | 1018.3 |
| 20260506191604 | 13 | 332 | 6.4 | 22.5 | 0.00 | 0.00 | 0.00 | 31 | 1018.5 |
| 20260506190057 | 13 | 333 | 4.8 | 20.9 | 0.00 | 0.00 | 0.00 | 33 | 1018.4 |
| 20260506184615 | 13 | 338 | 4.8 | 20.9 | 0.00 | 0.00 | 0.00 | 31 | 1018.6 |
| 20260506183053 | 13 | 287 | 6.4 | 35.4 | 0.00 | 0.00 | 0.00 | 33 | 1018.7 |
| 20260506181559 | 13 | 321 | 1.6 | 17.7 | 0.00 | 0.00 | 0.00 | 32 | 1018.9 |
| 20260506180058 | 13 | 303 | 3.2 | 19.3 | 0.00 | 0.00 | 0.00 | 34 | 1019.1 |
| 20260506174557 | 13 | 307 | 4.8 | 22.5 | 0.00 | 0.00 | 0.00 | 33 | 1019.3 |
| 20260506173100 | 12 | 294 | 6.4 | 24.1 | 0.00 | 0.00 | 0.00 | 36 | 1019.4 |
| 20260506171607 | 12 | 333 | 1.6 | 16.1 | 0.00 | 0.00 | 0.00 | 43 | 1019.7 |
| 20260506170100 | 11 | 300 | 1.6 | 22.5 | 0.00 | 0.00 | 0.00 | 36 | 1019.7 |
| 20260506164555 | 12 | 284 | 1.6 | 19.3 | 0.00 | 0.00 | 0.00 | 36 | 1019.8 |
| 20260506163107 | 12 | 0 | 0.0 | 16.1 | 0.00 | 0.00 | 0.00 | 35 | 1019.8 |
| 20260506161557 | 12 | 300 | 6.4 | 22.5 | 0.00 | 0.00 | 0.00 | 36 | 1019.8 |
| 20260506160107 | 12 | 292 | 1.6 | 11.3 | 0.00 | 0.00 | 0.00 | 42 | 1019.7 |
| 20260506154558 | 11 | 0 | 4.8 | 17.7 | 0.00 | 0.00 | 0.00 | 39 | 1019.8 |
| 20260506153057 | 11 | 0 | 1.6 | 17.7 | 0.00 | 0.00 | 0.00 | 42 | 1020.0 |
| 20260506151557 | 10 | 340 | 1.6 | 14.5 | 0.00 | 0.00 | 0.00 | 42 | 1019.9 |
| 20260506150057 | 10 | 0 | 1.6 | 11.3 | 0.00 | 0.00 | 0.00 | 42 | 1019.9 |
| 20260506144601 | 11 | 338 | 1.6 | 8.0 | 0.00 | 0.00 | 0.00 | 45 | 1019.9 |
| 20260506143056 | 10 | 0 | 1.6 | 12.9 | 0.00 | 0.00 | 0.00 | 46 | 1019.9 |
| 20260506141553 | 9 | 340 | 0.0 | 12.9 | 0.00 | 0.00 | 0.00 | 45 | 1019.7 |
| 20260506140054 | 8 | 0 | 0.0 | 4.8 | 0.00 | 0.00 | 0.00 | 50 | 1019.6 |
| 20260506134600 | 8 | 0 | 0.0 | 3.2 | 0.00 | 0.00 | 0.00 | 55 | 1019.3 |
| 20260506133103 | 7 | 0 | 0.0 | 3.2 | 0.00 | 0.00 | 0.00 | 55 | 1019.4 |
| 20260506131618 | 7 | 0 | 0.0 | 3.2 | 0.00 | 0.00 | 0.00 | 56 | 1019.2 |
| 20260506130109 | 6 | 0 | 0.0 | 4.8 | 0.00 | 0.00 | 0.00 | 60 | 1019.2 |
| 20260506124600 | 5 | 0 | 0.0 | 4.8 | 0.00 | 0.00 | 0.00 | 61 | 1019.1 |
| 20260506123058 | 3 | 0 | 0.0 | 0.0 | 0.00 | 0.00 | 0.00 | 62 | 1018.7 |
| 20260506121600 | 3 | 0 | 0.0 | 0.0 | 0.00 | 0.00 | 0.00 | 63 | 1018.4 |
| 20260506114605 | 2 | 0 | 0.0 | 0.0 | 0.00 | 0.00 | 0.00 | 63 | 1018.0 |
| 20260506113054 | 2 | 0 | 0.0 | 0.0 | 0.00 | 0.00 | 0.00 | 63 | 1017.9 |
| 20260506111557 | 3 | 0 | 0.0 | 0.0 | 0.00 | 0.00 | 0.00 | 62 | 1017.7 |
| 20260506110058 | 3 | 0 | 0.0 | 0.0 | 0.00 | 0.00 | 0.00 | 61 | 1017.8 |
| 20260506104601 | 3 | 0 | 0.0 | 0.0 | 0.00 | 0.00 | 0.00 | 60 | 1017.7 |
| 20260506103104 | 3 | 0 | 0.0 | 0.0 | 0.00 | 0.00 | 0.00 | 61 | 1017.6 |
| 20260506101557 | 4 | 0 | 0.0 | 0.0 | 0.00 | 0.00 | 0.00 | 64 | 1017.4 |
| 20260506100109 | 4 | 0 | 0.0 | 0.0 | 0.00 | 0.00 | 0.00 | 59 | 1017.3 |
| 20260506094555 | 4 | 0 | 0.0 | 0.0 | 0.00 | 0.00 | 0.00 | 59 | 1017.3 |